Dare County Regional Airport


Codes: KMQI/
Name: Dare County Regional Airport
City: Manteo
Country: United States
Elevation: 13 ft.
Wikipedia:

Photos at Dare County Regional Airport


   Photos courtesy of SpottingLog. You can add your own sightings and photos by signing up for a free trial today.



No photos found.

Weather at Dare County Regional Airport


Time (UTC)DescriptionTempratureWindCloud coverageVisibilityPressureHumidity
19-Apr-2024 03:00Overcast Clouds12°C16 mph, NE100%10000m1019hPa95%
19-Apr-2024 06:00Broken Clouds12°C16 mph, NE77%10000m1019hPa93%
19-Apr-2024 09:00Overcast Clouds12°C13 mph, NE85%10000m1018hPa93%
19-Apr-2024 12:00Overcast Clouds12°C13 mph, NE86%10000m1019hPa89%
19-Apr-2024 15:00Broken Clouds13°C9 mph, NE84%10000m1019hPa80%
19-Apr-2024 18:00Broken Clouds15°C9 mph, NE77%10000m1018hPa77%
19-Apr-2024 21:00Overcast Clouds14°C7 mph, NE86%10000m1017hPa80%
20-Apr-2024 00:00Overcast Clouds14°C9 mph, E93%10000m1017hPa86%
20-Apr-2024 03:00Light Rain14°C7 mph, S29%8229m1017hPa91%
20-Apr-2024 06:00Light Rain15°C9 mph, S46%10000m1015hPa95%
20-Apr-2024 09:00Light Rain16°C7 mph, S100%10000m1015hPa95%
20-Apr-2024 12:00Light Rain17°C2 mph, SW96%10000m1015hPa96%
20-Apr-2024 15:00Overcast Clouds17°C13 mph, N99%10000m1016hPa92%
20-Apr-2024 18:00Overcast Clouds14°C16 mph, N99%10000m1017hPa83%
20-Apr-2024 21:00Light Rain16°C11 mph, N83%10000m1016hPa70%
21-Apr-2024 00:00Scattered Clouds14°C7 mph, E48%10000m1017hPa74%
21-Apr-2024 03:00Few Clouds14°C2 mph, SE24%10000m1017hPa75%
21-Apr-2024 06:00Broken Clouds14°C4 mph, NE56%10000m1018hPa74%
21-Apr-2024 09:00Overcast Clouds13°C18 mph, NE100%10000m1018hPa67%
21-Apr-2024 12:00Overcast Clouds13°C13 mph, NE100%10000m1020hPa60%
21-Apr-2024 15:00Overcast Clouds13°C11 mph, NE100%10000m1020hPa64%
21-Apr-2024 18:00Light Rain12°C11 mph, NE100%10000m1019hPa66%
21-Apr-2024 21:00Light Rain11°C9 mph, NE100%10000m1018hPa81%
22-Apr-2024 00:00Light Rain10°C11 mph, NE100%10000m1017hPa89%
22-Apr-2024 03:00Light Rain11°C13 mph, NE100%10000m1017hPa90%
22-Apr-2024 06:00Moderate Rain10°C18 mph, NE100%5849m1015hPa92%
22-Apr-2024 09:00Moderate Rain10°C20 mph, NE100%7396m1014hPa91%
22-Apr-2024 12:00Moderate Rain10°C18 mph, NE100%7680m1016hPa89%
22-Apr-2024 15:00Light Rain11°C13 mph, NE99%10000m1017hPa77%
22-Apr-2024 18:00Broken Clouds13°C9 mph, N75%10000m1016hPa68%
22-Apr-2024 21:00Clear Sky14°C11 mph, NE8%10000m1016hPa59%
23-Apr-2024 00:00Scattered Clouds12°C9 mph, NE46%10000m1018hPa67%
23-Apr-2024 03:00Broken Clouds12°C11 mph, NE75%10000m1019hPa68%
23-Apr-2024 06:00Broken Clouds12°C11 mph, NE74%10000m1018hPa66%
23-Apr-2024 09:00Broken Clouds12°C9 mph, NE76%10000m1019hPa69%
23-Apr-2024 12:00Scattered Clouds13°C11 mph, NE38%10000m1020hPa65%
23-Apr-2024 15:00Clear Sky15°C11 mph, NE0%10000m1022hPa59%
23-Apr-2024 18:00Clear Sky15°C9 mph, NE0%10000m1020hPa60%
23-Apr-2024 21:00Clear Sky16°C7 mph, E4%10000m1019hPa63%
24-Apr-2024 00:00Clear Sky14°C4 mph, E3%10000m1019hPa75%